| time (UTC) | temp F | wind direction | speed knots | gust knots | rain 1hr in | rain 24hr in | rain mn in | humidity % | barometer mb |
| 20260510214318 | 43 | 0.0 | 0.0 | 0.00 | 0.00 | 0.00 | 77 | 1016.5 | |
| 20260510213317 | 43 | 0.0 | 0.0 | 0.00 | 0.00 | 0.00 | 76 | 1016.6 | |
| 20260510212317 | 44 | 0.0 | 0.0 | 0.00 | 0.00 | 0.00 | 76 | 1016.5 | |
| 20260510211318 | 44 | 0.0 | 0.0 | 0.00 | 0.00 | 0.00 | 76 | 1016.7 | |
| 20260510210318 | 44 | 0.0 | 0.0 | 0.00 | 0.00 | 0.00 | 75 | 1016.8 | |
| 20260510205318 | 44 | 0.0 | 0.0 | 0.00 | 0.00 | 0.00 | 75 | 1017.0 | |
| 20260510204318 | 45 | 0.0 | 0.0 | 0.00 | 0.00 | 0.00 | 74 | 1017.1 | |
| 20260510203318 | 45 | 0.0 | 0.0 | 0.00 | 0.00 | 0.00 | 74 | 1017.2 | |
| 20260510202318 | 45 | 292 | 0.0 | 1.7 | 0.00 | 0.00 | 0.00 | 73 | 1017.2 |
| 20260510201319 | 45 | 264 | 0.0 | 1.7 | 0.00 | 0.00 | 0.00 | 72 | 1017.2 |
| 20260510200316 | 46 | 0.0 | 0.0 | 0.00 | 0.00 | 0.00 | 71 | 1017.3 | |
| 20260510195316 | 47 | 231 | 0.0 | 0.9 | 0.00 | 0.00 | 0.00 | 70 | 1017.3 |
| 20260510194319 | 48 | 0.0 | 0.0 | 0.00 | 0.00 | 0.00 | 67 | 1017.3 | |
| 20260510193319 | 48 | 268 | 0.0 | 2.6 | 0.00 | 0.00 | 0.00 | 66 | 1017.3 |
| 20260510192320 | 48 | 302 | 0.9 | 3.5 | 0.00 | 0.00 | 0.00 | 65 | 1017.3 |
| 20260510191317 | 48 | 286 | 1.7 | 4.3 | 0.00 | 0.00 | 0.00 | 65 | 1017.4 |
| 20260510190317 | 49 | 270 | 1.7 | 4.3 | 0.00 | 0.00 | 0.00 | 64 | 1017.4 |
| 20260510185317 | 50 | 269 | 1.7 | 6.1 | 0.00 | 0.00 | 0.00 | 63 | 1017.5 |
| 20260510184318 | 51 | 312 | 1.7 | 4.3 | 0.00 | 0.00 | 0.00 | 62 | 1017.7 |
| 20260510183318 | 51 | 327 | 0.9 | 3.5 | 0.00 | 0.00 | 0.00 | 61 | 1017.7 |
| 20260510182317 | 52 | 307 | 1.7 | 3.5 | 0.00 | 0.00 | 0.00 | 61 | 1017.8 |
| 20260510181358 | 52 | 263 | 0.9 | 1.7 | 0.00 | 0.00 | 0.00 | 59 | 1017.8 |
| 20260510180338 | 52 | 319 | 0.9 | 4.3 | 0.00 | 0.00 | 0.00 | 60 | 1017.8 |
| 20260510175318 | 53 | 322 | 0.9 | 4.3 | 0.00 | 0.00 | 0.00 | 57 | 1017.9 |
| 20260510174318 | 53 | 320 | 1.7 | 3.5 | 0.00 | 0.00 | 0.00 | 58 | 1017.9 |
| 20260510173319 | 53 | 325 | 2.6 | 5.2 | 0.00 | 0.00 | 0.00 | 56 | 1018.1 |
| 20260510172316 | 53 | 262 | 2.6 | 5.2 | 0.00 | 0.00 | 0.00 | 52 | 1018.2 |
| 20260510171319 | 53 | 280 | 1.7 | 6.1 | 0.00 | 0.00 | 0.00 | 51 | 1018.3 |
| 20260510170319 | 54 | 250 | 0.9 | 5.2 | 0.00 | 0.00 | 0.00 | 50 | 1018.2 |
| 20260510165359 | 54 | 278 | 0.9 | 1.7 | 0.00 | 0.00 | 0.00 | 49 | 1018.2 |
| 20260510164316 | 53 | 284 | 3.5 | 5.2 | 0.00 | 0.00 | 0.00 | 50 | 1018.2 |
| 20260510163337 | 54 | 278 | 3.5 | 6.1 | 0.00 | 0.00 | 0.00 | 50 | 1018.6 |
| 20260510162337 | 54 | 320 | 1.7 | 6.1 | 0.00 | 0.00 | 0.00 | 53 | 1018.6 |
| 20260510161317 | 54 | 5 | 2.6 | 4.3 | 0.00 | 0.00 | 0.00 | 54 | 1018.7 |
| 20260510160317 | 53 | 298 | 2.6 | 6.1 | 0.00 | 0.00 | 0.00 | 56 | 1018.8 |
| 20260510155317 | 53 | 263 | 2.6 | 5.2 | 0.00 | 0.00 | 0.00 | 59 | 1018.9 |
| 20260510154317 | 53 | 305 | 1.7 | 4.3 | 0.00 | 0.00 | 0.00 | 61 | 1019.0 |
| 20260510153338 | 54 | 271 | 2.6 | 4.3 | 0.00 | 0.00 | 0.00 | 62 | 1019.1 |
| 20260510152318 | 54 | 286 | 3.5 | 7.0 | 0.00 | 0.00 | 0.00 | 61 | 1019.3 |
| 20260510151318 | 55 | 292 | 3.5 | 7.0 | 0.00 | 0.00 | 0.00 | 61 | 1019.4 |
| 20260510150318 | 55 | 326 | 1.7 | 5.2 | 0.00 | 0.00 | 0.00 | 61 | 1019.5 |
| 20260510145338 | 54 | 18 | 2.6 | 5.2 | 0.00 | 0.00 | 0.00 | 61 | 1019.6 |
| 20260510144319 | 54 | 313 | 2.6 | 4.3 | 0.00 | 0.00 | 0.00 | 62 | 1019.7 |
| 20260510143319 | 54 | 6 | 3.5 | 6.1 | 0.00 | 0.00 | 0.00 | 62 | 1019.8 |
| 20260510142319 | 54 | 296 | 2.6 | 5.2 | 0.00 | 0.00 | 0.00 | 64 | 1019.9 |
| 20260510141339 | 54 | 299 | 0.9 | 3.5 | 0.00 | 0.00 | 0.00 | 64 | 1020.0 |
| 20260510140336 | 54 | 312 | 1.7 | 4.3 | 0.00 | 0.00 | 0.00 | 65 | 1020.1 |
| 20260510135316 | 54 | 346 | 2.6 | 5.2 | 0.00 | 0.00 | 0.00 | 67 | 1020.1 |
| 20260510134321 | 55 | 345 | 2.6 | 6.1 | 0.00 | 0.00 | 0.00 | 65 | 1020.3 |
| 20260510133320 | 55 | 351 | 1.7 | 3.5 | 0.00 | 0.00 | 0.00 | 64 | 1020.4 |
| 20260510132320 | 54 | 293 | 2.6 | 6.1 | 0.00 | 0.00 | 0.00 | 64 | 1020.4 |
| 20260510131317 | 54 | 289 | 0.9 | 2.6 | 0.00 | 0.00 | 0.00 | 65 | 1020.5 |
| 20260510130317 | 54 | 270 | 0.9 | 2.6 | 0.00 | 0.00 | 0.00 | 65 | 1020.6 |
| 20260510125337 | 54 | 332 | 3.5 | 8.7 | 0.00 | 0.00 | 0.00 | 63 | 1020.6 |
| 20260510124318 | 54 | 352 | 1.7 | 4.3 | 0.00 | 0.00 | 0.00 | 64 | 1020.7 |
| 20260510123318 | 54 | 296 | 1.7 | 4.3 | 0.00 | 0.00 | 0.00 | 64 | 1020.8 |
| 20260510122317 | 54 | 335 | 3.5 | 6.1 | 0.00 | 0.00 | 0.00 | 66 | 1021.0 |
| 20260510121318 | 54 | 11 | 1.7 | 3.5 | 0.00 | 0.00 | 0.00 | 66 | 1021.1 |
| 20260510120318 | 54 | 14 | 2.6 | 5.2 | 0.00 | 0.00 | 0.00 | 63 | 1021.0 |
| 20260510115318 | 55 | 39 | 2.6 | 3.5 | 0.00 | 0.00 | 0.00 | 54 | 1021.0 |
| 20260510114318 | 55 | 46 | 2.6 | 7.8 | 0.00 | 0.00 | 0.00 | 58 | 1021.1 |
| 20260510113318 | 54 | 26 | 1.7 | 3.5 | 0.00 | 0.00 | 0.00 | 56 | 1021.2 |
| 20260510112319 | 54 | 38 | 2.6 | 5.2 | 0.00 | 0.00 | 0.00 | 58 | 1021.4 |
| 20260510111318 | 54 | 15 | 2.6 | 5.2 | 0.00 | 0.00 | 0.00 | 56 | 1021.4 |
| 20260510110319 | 54 | 65 | 1.7 | 5.2 | 0.00 | 0.00 | 0.00 | 56 | 1021.5 |
| 20260510105319 | 54 | 359 | 2.6 | 4.3 | 0.00 | 0.00 | 0.00 | 56 | 1021.7 |
| 20260510104319 | 54 | 38 | 0.0 | 1.7 | 0.00 | 0.00 | 0.00 | 60 | 1021.7 |
| 20260510103320 | 53 | 30 | 0.9 | 2.6 | 0.00 | 0.00 | 0.00 | 55 | 1021.8 |
| 20260510102317 | 53 | 19 | 2.6 | 4.3 | 0.00 | 0.00 | 0.00 | 58 | 1022.0 |
| 20260510101317 | 52 | 63 | 1.7 | 5.2 | 0.00 | 0.00 | 0.00 | 58 | 1022.0 |
| 20260510100317 | 52 | 44 | 3.5 | 7.0 | 0.00 | 0.00 | 0.00 | 58 | 1022.1 |
| 20260510095317 | 52 | 36 | 3.5 | 7.8 | 0.00 | 0.00 | 0.00 | 60 | 1022.2 |
| 20260510094320 | 51 | 46 | 3.5 | 5.2 | 0.00 | 0.00 | 0.00 | 63 | 1022.3 |
| 20260510093318 | 51 | 68 | 2.6 | 5.2 | 0.00 | 0.00 | 0.00 | 61 | 1022.3 |
| 20260510092318 | 51 | 34 | 1.7 | 5.2 | 0.00 | 0.00 | 0.00 | 62 | 1022.4 |
| 20260510091318 | 50 | 106 | 3.5 | 5.2 | 0.00 | 0.00 | 0.00 | 63 | 1022.6 |
| 20260510090318 | 50 | 79 | 4.3 | 7.8 | 0.00 | 0.00 | 0.00 | 64 | 1022.6 |
| 20260510085318 | 49 | 56 | 3.5 | 5.2 | 0.00 | 0.00 | 0.00 | 66 | 1022.7 |
| 20260510084339 | 49 | 58 | 3.5 | 6.1 | 0.00 | 0.00 | 0.00 | 67 | 1022.7 |
| 20260510083338 | 49 | 58 | 2.6 | 5.2 | 0.00 | 0.00 | 0.00 | 70 | 1022.6 |
| 20260510082359 | 47 | 44 | 3.5 | 5.2 | 0.00 | 0.00 | 0.00 | 72 | 1022.6 |
| 20260510081319 | 47 | 45 | 3.5 | 7.8 | 0.00 | 0.00 | 0.00 | 73 | 1022.6 |
| 20260510080319 | 48 | 45 | 2.6 | 5.2 | 0.00 | 0.00 | 0.00 | 72 | 1022.6 |
| 20260510075319 | 47 | 51 | 2.6 | 4.3 | 0.00 | 0.00 | 0.00 | 73 | 1022.6 |
| 20260510074319 | 47 | 50 | 3.5 | 4.3 | 0.00 | 0.00 | 0.00 | 73 | 1022.6 |
| 20260510073316 | 47 | 46 | 1.7 | 4.3 | 0.00 | 0.00 | 0.00 | 75 | 1022.7 |
| 20260510072316 | 48 | 58 | 0.9 | 2.6 | 0.00 | 0.00 | 0.00 | 73 | 1022.8 |
| 20260510071317 | 47 | 43 | 1.7 | 3.5 | 0.00 | 0.00 | 0.00 | 75 | 1022.7 |
| 20260510070320 | 46 | 35 | 2.6 | 4.3 | 0.00 | 0.00 | 0.00 | 77 | 1022.6 |
| 20260510065317 | 46 | 48 | 4.3 | 6.1 | 0.00 | 0.00 | 0.00 | 77 | 1022.6 |
| 20260510064337 | 46 | 73 | 1.7 | 3.5 | 0.00 | 0.00 | 0.00 | 78 | 1022.5 |
| 20260510063337 | 47 | 93 | 1.7 | 2.6 | 0.00 | 0.00 | 0.00 | 77 | 1022.5 |
| 20260510062317 | 48 | 55 | 0.0 | 1.7 | 0.00 | 0.00 | 0.00 | 77 | 1022.5 |
| 20260510061338 | 48 | 20 | 1.7 | 2.6 | 0.00 | 0.00 | 0.00 | 79 | 1022.4 |
| 20260510060318 | 47 | 2 | 0.0 | 2.6 | 0.00 | 0.00 | 0.00 | 83 | 1022.4 |
| 20260510055318 | 46 | 0.0 | 0.0 | 0.00 | 0.00 | 0.00 | 87 | 1022.4 | |
| 20260510054318 | 44 | 20 | 0.9 | 2.6 | 0.00 | 0.00 | 0.00 | 90 | 1022.5 |
| 20260510053318 | 43 | 0.0 | 0.0 | 0.00 | 0.00 | 0.00 | 91 | 1022.4 | |
| 20260510052338 | 42 | 0.0 | 0.0 | 0.00 | 0.00 | 0.00 | 91 | 1022.4 | |
| 20260510051319 | 41 | 0.0 | 0.0 | 0.00 | 0.00 | 0.00 | 92 | 1022.4 | |
| 20260510050339 | 41 | 0.0 | 0.0 | 0.00 | 0.00 | 0.00 | 92 | 1022.4 | |
| 20260510045336 | 41 | 0.0 | 0.0 | 0.00 | 0.00 | 0.00 | 92 | 1022.4 | |
| 20260510044339 | 41 | 0.0 | 0.0 | 0.00 | 0.00 | 0.00 | 92 | 1022.4 | |
| 20260510043319 | 41 | 319 | 0.0 | 0.9 | 0.00 | 0.00 | 0.00 | 92 | 1022.4 |
| 20260510042319 | 42 | 0.0 | 0.0 | 0.00 | 0.00 | 0.00 | 92 | 1022.5 | |
| 20260510041400 | 41 | 40 | 0.9 | 3.5 | 0.00 | 0.00 | 0.00 | 93 | 1022.6 |
| 20260510040336 | 41 | 0.0 | 0.0 | 0.00 | 0.00 | 0.00 | 92 | 1022.6 | |
| 20260510035357 | 41 | 270 | 0.0 | 0.9 | 0.00 | 0.00 | 0.00 | 92 | 1022.7 |
| 20260510034317 | 41 | 0.0 | 0.0 | 0.00 | 0.00 | 0.00 | 92 | 1022.7 | |
| 20260510033320 | 41 | 0.0 | 0.0 | 0.00 | 0.00 | 0.00 | 92 | 1022.8 | |
| 20260510032337 | 40 | 199 | 0.0 | 0.0 | 0.00 | 0.00 | 0.00 | 92 | 1022.9 |
| 20260510031317 | 41 | 0.0 | 0.0 | 0.00 | 0.00 | 0.00 | 91 | 1022.9 | |
| 20260510030319 | 41 | 0.0 | 0.0 | 0.00 | 0.00 | 0.00 | 91 | 1022.9 | |
| 20260510025318 | 41 | 0.0 | 0.0 | 0.00 | 0.00 | 0.00 | 91 | 1022.9 | |
| 20260510024318 | 41 | 0.0 | 0.0 | 0.00 | 0.00 | 0.00 | 91 | 1022.9 | |
| 20260510023318 | 41 | 0.0 | 0.0 | 0.00 | 0.00 | 0.00 | 91 | 1022.9 | |
| 20260510022318 | 42 | 0.0 | 0.0 | 0.00 | 0.00 | 0.00 | 90 | 1022.9 | |
| 20260510021318 | 42 | 0.0 | 0.0 | 0.00 | 0.00 | 0.00 | 90 | 1022.9 | |
| 20260510020319 | 42 | 304 | 0.0 | 0.0 | 0.00 | 0.00 | 0.00 | 89 | 1022.9 |
| 20260510015319 | 43 | 0.0 | 0.0 | 0.00 | 0.00 | 0.00 | 89 | 1022.8 | |
| 20260510014316 | 43 | 0.0 | 0.0 | 0.00 | 0.00 | 0.00 | 88 | 1022.8 | |
| 20260510013316 | 44 | 0.0 | 0.0 | 0.00 | 0.00 | 0.00 | 87 | 1022.8 | |
| 20260510012316 | 44 | 0.0 | 0.0 | 0.00 | 0.00 | 0.00 | 86 | 1022.9 | |
| 20260510011340 | 45 | 0.0 | 0.0 | 0.00 | 0.00 | 0.00 | 85 | 1022.9 | |
| 20260510010320 | 45 | 0.0 | 0.0 | 0.00 | 0.00 | 0.00 | 84 | 1022.8 | |
| 20260510005317 | 45 | 0.0 | 0.0 | 0.00 | 0.00 | 0.00 | 84 | 1022.8 | |
| 20260510004317 | 45 | 0.0 | 0.0 | 0.00 | 0.00 | 0.00 | 83 | 1022.8 | |
| 20260510003337 | 46 | 0.0 | 0.0 | 0.00 | 0.00 | 0.00 | 82 | 1022.8 | |
| 20260510002317 | 46 | 0.0 | 0.0 | 0.00 | 0.00 | 0.00 | 82 | 1022.9 | |
| 20260510001318 | 46 | 0.0 | 0.0 | 0.00 | 0.00 | 0.00 | 82 | 1022.9 | |
| 20260510000319 | 47 | 59 | 0.9 | 2.6 | 0.00 | 0.00 | 0.00 | 82 | 1023.0 |
| 20260509235319 | 47 | 0.0 | 0.0 | 0.00 | 0.00 | 0.00 | 82 | 1023.1 | |
| 20260509234318 | 47 | 0.0 | 0.0 | 0.00 | 0.00 | 0.00 | 82 | 1023.1 | |
| 20260509233318 | 47 | 0.0 | 0.0 | 0.00 | 0.00 | 0.00 | 82 | 1023.0 | |
| 20260509232318 | 47 | 50 | 0.0 | 0.9 | 0.00 | 0.00 | 0.00 | 82 | 1023.0 |
| 20260509231316 | 47 | 97 | 0.0 | 1.7 | 0.00 | 0.00 | 0.00 | 82 | 1023.0 |
| 20260509230339 | 47 | 32 | 0.0 | 1.7 | 0.00 | 0.00 | 0.00 | 82 | 1022.9 |
| 20260509225319 | 47 | 47 | 3.5 | 6.1 | 0.00 | 0.00 | 0.00 | 82 | 1022.8 |
| 20260509224320 | 47 | 72 | 1.7 | 2.6 | 0.00 | 0.00 | 0.00 | 81 | 1022.9 |
| 20260509223319 | 48 | 35 | 0.9 | 2.6 | 0.00 | 0.00 | 0.00 | 81 | 1022.8 |
| 20260509222317 | 48 | 64 | 2.6 | 4.3 | 0.00 | 0.00 | 0.00 | 81 | 1022.8 |
| 20260509221316 | 48 | 24 | 2.6 | 5.2 | 0.00 | 0.00 | 0.00 | 81 | 1022.8 |
| 20260509220317 | 48 | 46 | 2.6 | 5.2 | 0.00 | 0.00 | 0.00 | 82 | 1022.8 |
| 20260509215320 | 48 | 30 | 0.9 | 2.6 | 0.00 | 0.00 | 0.00 | 82 | 1022.9 |